Torna al catalogo

COSMOS 1680

AttivoNavigazioneLEO
NORAD 16011·PAYLOAD·🇷🇺 Russia

Lanciato Sep 4, 1985 da Plesetsk Cosmodrome

Loading…

Prossimi Passaggi (prossime 24 ore)

TLE

AggiornatoSource: Space-Track

Epoca: Sep 14, 2026, 14:52 UTC

1 16011U 85079A   26257.61986107  .00000095  00000-0  43059-4 0  9997
2 16011  74.0542 161.2939 0015768 309.9883  49.9884 14.34179508144622

Traccia COSMOS 1680 in tempo reale con AllMySat

Download on the App Store